Theta_e
327 321 316 323 320 314 309 307 298 296 293 289 287 287 289 294 293 294 295 297 295 298 300 302 300 302 301 300 303 306 311 299 298 293 293 306 325 335 337 338 340 341 340 341 342 343 344 348 350 350 350 349 349 349 350 349 348 348 347 347 347 346 346 347 346 345 344 343 342 342 342 341 341 339 338 338 340 346 346 346 345 345 345 344 342 341 339 338 338 339 340 341 341 341 340 340 339
322 317 316 319 315 310 308 301 292 290 285 285 289 287 292 293 293 293 293 293 295 299 298 300 306 309 309 309 311 309 305 314 314 309 321 329 334 335 337 340 341 340 341 343 345 342 341 347 349 350 350 350 349 350 350 349 348 348 347 347 347 347 347 346 345 345 343 342 343 342 342 342 341 340 339 341 345 345 345 345 344 343 344 343 342 342 340 339 338 338 339 340 341 341 340 340 339
322 317 316 313 312 310 305 301 296 285 286 284 285 286 293 293 292 292 295 297 298 299 297 301 304 304 303 305 304 303 298 317 323 323 323 332 330 331 338 342 342 342 343 344 345 342 342 345 347 350 350 350 350 349 349 348 348 347 347 347 347 347 346 345 345 345 344 343 343 342 342 341 339 339 339 337 336 345 344 344 343 343 343 343 341 339 337 337 337 339 339 340 341 340 341 339 338
317 318 316 310 308 304 299 293 288 285 287 282 286 291 293 293 294 295 297 298 298 297 299 301 298 301 305 304 307 311 309 316 321 323 325 328 327 335 339 341 342 343 343 344 344 342 343 345 347 350 349 350 349 349 349 348 348 347 347 347 346 346 346 344 345 344 344 343 342 342 341 340 340 339 342 345 345 345 345 343 343 342 343 343 341 340 341 339 337 337 338 339 341 340 340 338 338
316 320 314 308 305 303 298 295 288 283 284 284 285 286 294 294 296 296 298 298 299 298 300 301 297 301 305 307 307 305 307 316 324 324 324 327 335 338 340 341 342 341 341 342 343 342 342 344 347 347 350 350 349 349 349 348 348 347 346 346 346 346 346 345 344 344 343 342 342 342 341 340 339 339 342 343 344 344 344 344 344 343 342 340 338 336 335 336 337 338 337 339 340 340 340 339 338
314 314 315 310 305 306 296 290 290 287 286 288 287 292 294 296 297 296 298 299 300 297 299 299 297 299 307 309 311 308 316 314 321 324 325 329 335 338 340 340 341 341 341 342 342 342 342 342 346 347 350 350 350 349 348 348 347 347 346 346 346 345 345 345 344 343 343 342 341 341 341 340 340 339 339 343 343 343 343 343 342 342 341 341 339 337 336 337 336 338 338 339 339 340 340 339 339
313 308 307 303 304 300 293 286 286 285 293 290 290 294 296 295 296 296 297 298 300 299 298 300 303 303 303 308 310 316 319 322 324 324 326 332 333 338 340 340 340 340 341 342 342 342 341 343 347 350 349 349 349 349 348 348 347 346 346 346 345 345 345 345 344 343 343 343 342 341 341 340 339 339 338 338 340 339 340 341 340 340 339 339 338 337 337 336 337 338 338 338 339 339 337 337 337
315 307 306 299 294 294 290 287 288 285 293 293 295 298 296 296 295 296 295 295 297 298 299 298 300 299 299 308 304 313 322 324 323 326 329 331 334 337 338 339 339 340 342 342 342 341 344 342 347 347 348 349 349 348 348 347 347 346 346 346 345 345 345 344 345 344 343 343 342 341 340 339 339 338 338 337 337 336 337 337 336 337 335 334 334 334 334 335 335 337 338 338 339 338 336 336 337
308 307 303 297 295 290 286 288 290 289 293 294 297 299 303 298 296 296 295 295 296 296 299 299 296 298 298 307 306 311 319 324 327 329 331 332 334 336 338 339 340 340 341 342 342 341 342 342 345 347 347 348 348 348 348 348 347 347 347 346 346 345 345 345 344 343 343 342 341 341 340 339 338 338 337 337 337 337 336 336 336 335 335 334 335 334 334 334 336 337 337 338 338 338 335 335 335
305 304 298 295 293 292 284 287 287 291 292 294 296 298 297 296 295 295 295 295 297 296 297 298 297 297 300 305 307 313 317 325 327 328 330 332 334 335 336 339 341 340 340 341 341 342 342 345 341 343 345 347 348 348 348 348 347 347 346 346 346 346 345 344 344 343 343 342 341 340 340 339 338 338 337 336 336 336 335 335 335 335 334 334 334 334 334 334 336 337 337 337 337 337 336 336 335
299 299 299 296 287 286 287 287 286 292 293 294 296 298 298 296 296 294 295 296 297 297 299 298 300 300 303 304 305 312 318 324 326 327 329 332 332 333 334 337 341 341 340 341 341 341 342 342 342 340 343 344 346 347 347 347 347 347 346 346 346 345 345 344 344 343 342 342 341 340 340 339 339 338 338 337 336 336 336 335 334 334 334 333 334 334 334 333 335 335 337 338 337 337 336 336 336
297 296 298 290 288 288 285 287 290 290 293 293 296 296 295 295 294 294 295 296 297 297 297 297 298 302 303 303 304 313 321 323 324 327 328 328 330 331 334 337 340 340 340 340 341 342 341 340 341 342 339 339 342 344 345 345 346 347 347 347 346 345 345 344 344 342 341 341 341 340 340 339 339 338 338 337 336 335 335 334 334 334 334 334 333 333 333 333 334 335 336 336 336 336 336 336 335
300 295 289 289 288 290 287 288 289 290 291 293 294 297 294 296 296 295 296 296 295 296 297 297 298 301 299 301 304 317 319 323 324 325 326 326 327 328 334 338 339 339 339 339 341 340 340 340 341 342 338 335 336 338 340 341 344 346 346 346 345 345 345 344 344 342 341 341 341 340 339 339 339 338 337 337 335 334 335 334 334 334 334 333 333 333 334 333 334 334 334 334 334 334 335 334 334
301 299 293 292 288 288 287 288 288 289 287 290 292 296 296 297 295 296 295 296 295 295 298 297 300 304 303 306 308 313 318 323 323 324 324 325 328 330 332 337 337 338 338 338 338 339 339 339 340 339 337 338 339 336 334 338 341 344 344 344 344 344 344 344 344 343 341 340 340 340 339 339 338 338 337 336 334 333 333 334 334 334 334 334 333 332 332 332 333 333 333 333 333 333 333 333 332
305 300 292 291 288 288 288 288 291 285 288 290 296 297 296 298 293 293 298 294 295 296 300 302 301 301 296 305 301 313 319 322 323 322 323 326 328 329 330 335 336 337 338 337 338 338 338 338 338 337 337 338 338 338 338 337 335 340 341 341 342 342 343 342 342 341 339 339 338 336 336 335 333 334 335 335 333 333 332 332 334 334 334 334 332 331 331 332 332 332 332 332 332 332 331 330 329
304 296 291 294 288 287 289 289 288 287 291 292 296 294 295 298 295 295 296 295 298 301 299 299 300 297 297 303 297 314 319 322 323 322 325 325 325 324 328 333 335 336 336 336 336 337 337 337 337 337 338 337 337 337 338 338 334 333 337 338 339 340 340 340 338 336 334 333 333 332 329 328 327 328 327 328 330 333 331 329 333 333 334 333 332 331 331 331 330 331 331 331 331 330 329 328 326
300 296 295 285 290 288 290 290 288 289 290 292 295 296 295 295 297 298 297 299 300 298 297 299 299 309 303 303 306 316 321 323 322 323 324 322 325 324 328 331 334 335 336 335 335 336 337 336 337 337 338 336 336 337 338 337 336 331 332 332 334 337 337 336 335 330 326 325 326 323 324 327 326 326 326 326 323 324 323 326 331 333 333 332 331 331 331 329 328 328 328 328 327 326 323 323 323
299 294 287 290 285 288 291 291 290 292 294 293 294 294 294 293 296 299 298 296 294 295 296 297 311 313 314 314 317 321 323 322 322 323 322 321 320 324 328 330 333 333 335 335 334 335 335 336 336 337 337 336 336 338 338 338 336 334 336 336 336 334 331 329 330 331 329 327 322 325 326 325 325 324 324 325 322 323 323 324 328 332 332 332 331 331 330 328 327 327 326 325 323 320 316 312 313
295 289 288 288 286 291 293 292 292 293 294 295 295 292 295 294 294 297 295 293 295 296 296 299 307 312 315 316 319 321 321 321 321 322 321 321 321 324 327 328 331 333 334 335 335 335 335 334 335 336 337 337 336 337 338 338 336 336 335 336 335 330 332 331 332 330 328 327 327 326 324 324 324 323 322 323 322 321 323 324 328 329 331 330 330 330 329 327 325 324 323 321 318 315 309 308 309
295 292 289 286 290 293 293 294 296 293 294 294 294 294 293 295 295 297 295 292 293 293 293 295 303 307 310 313 316 318 320 320 320 320 320 321 321 323 324 327 329 332 334 335 335 336 335 333 334 335 336 337 336 337 338 337 336 338 336 336 336 335 333 334 333 331 329 328 328 325 324 323 322 322 323 322 322 321 322 323 326 327 328 327 327 327 327 324 322 320 318 315 311 307 306 306 307
295 292 288 292 291 293 296 294 294 293 294 295 294 293 294 295 295 295 292 293 291 292 293 298 298 303 313 314 316 316 318 318 318 318 319 319 320 321 324 327 330 332 334 334 333 335 335 334 333 334 335 336 336 337 337 336 337 338 337 337 337 336 334 336 335 333 330 328 327 325 325 323 322 321 321 321 321 321 321 321 323 323 323 322 320 318 314 310 308 306 306 306 304 305 305 305 306
294 293 292 292 292 294 296 294 293 292 292 293 291 294 294 296 296 293 292 291 289 293 295 297 299 308 314 314 315 315 316 317 317 317 317 318 319 320 320 318 320 324 327 331 334 335 334 334 333 333 336 336 336 337 338 336 337 338 337 337 336 336 336 336 336 334 331 330 327 326 324 322 321 321 321 321 320 319 318 318 319 318 317 317 317 314 311 307 305 304 303 303 302 303 303 304 304
294 291 292 292 292 295 295 295 293 292 293 292 291 294 295 295 294 292 292 293 291 292 295 298 298 310 317 317 316 314 315 315 316 316 317 316 317 318 319 320 322 325 327 330 333 335 334 333 332 332 335 337 337 337 337 336 337 339 338 337 336 335 336 337 336 335 333 331 329 327 324 322 320 320 320 320 319 318 317 316 317 317 316 315 315 313 309 306 304 303 302 301 301 302 302 302 302
290 292 293 295 294 296 294 295 292 290 293 294 294 295 295 293 295 294 292 293 292 294 298 296 295 309 317 315 315 315 315 316 316 318 318 317 317 318 319 320 322 324 325 328 329 332 332 332 332 332 334 336 337 338 337 337 338 339 338 335 336 334 335 336 337 336 334 333 331 329 325 323 321 320 319 319 318 317 316 316 316 315 315 314 313 312 308 305 304 303 301 301 301 302 302 301 301
293 293 293 294 294 294 292 291 291 292 293 293 294 294 295 292 293 293 294 296 296 294 297 298 298 310 315 314 314 314 314 314 315 316 316 316 316 316 314 317 318 320 322 325 327 329 331 332 332 332 333 334 337 337 337 337 337 338 337 336 337 332 336 336 337 337 335 334 333 330 326 323 321 320 319 319 318 316 316 315 314 314 313 313 313 311 308 305 303 302 301 300 300 300 301 301 300
291 293 292 294 295 294 293 294 292 293 295 293 294 294 292 291 292 294 296 295 296 295 298 298 301 308 311 313 314 314 313 313 314 314 316 317 314 315 316 318 319 320 322 324 325 327 329 330 331 332 333 334 335 336 336 336 337 337 336 336 337 333 336 337 336 336 336 335 334 332 328 325 322 320 320 319 318 316 315 314 314 312 312 312 313 311 307 305 303 301 300 299 299 300 300 300 299
292 292 292 293 295 295 294 295 294 294 295 293 294 292 295 295 294 291 291 295 294 295 297 297 300 303 307 310 312 313 313 313 313 315 313 312 313 315 317 317 318 321 322 322 323 325 327 328 330 331 332 331 333 333 334 335 336 337 336 336 336 335 337 336 335 335 335 335 335 333 331 327 324 321 320 319 317 316 316 314 313 312 311 312 313 311 309 305 303 301 299 299 298 299 299 299 299
293 293 292 293 291 294 293 293 293 294 296 291 293 293 293 294 293 293 295 296 294 296 294 296 296 299 302 304 308 310 310 312 313 310 312 312 314 315 316 317 318 320 321 322 323 324 325 327 329 330 331 331 331 332 332 333 334 336 335 336 336 336 336 336 335 335 332 335 335 334 333 330 326 324 321 320 318 317 316 315 313 312 312 313 314 311 307 305 304 302 300 298 298 298 298 299 299
294 294 292 291 290 293 295 294 294 294 295 294 294 292 291 292 291 297 296 294 294 295 294 295 295 296 298 300 303 304 306 307 307 310 312 314 315 317 317 319 319 319 322 323 323 322 323 325 328 329 330 329 331 332 332 332 333 334 334 335 335 334 336 336 335 335 335 334 334 334 333 331 328 326 323 321 318 318 317 315 314 313 313 315 314 311 308 305 303 302 300 300 299 298 298 298 297
294 292 289 290 287 287 292 292 293 295 295 293 293 285 283 286 294 295 293 294 294 293 293 294 295 294 295 296 299 301 302 301 302 308 311 312 313 315 317 319 320 320 321 322 322 322 323 325 327 329 329 328 329 331 331 329 330 331 332 334 333 334 335 335 334 335 335 335 334 334 333 332 329 329 326 322 319 319 317 316 315 314 315 317 314 311 307 304 301 299 298 298 298 297 296 295 295
291 292 288 286 287 286 291 293 293 293 295 293 292 285 283 287 289 291 291 293 295 294 293 292 294 294 293 294 295 298 300 302 304 305 308 310 312 313 315 317 319 320 317 319 321 323 322 324 326 327 326 328 326 329 328 328 327 329 329 330 332 333 334 334 335 335 335 335 334 333 333 332 331 330 328 323 321 320 318 317 316 315 316 317 313 311 308 304 301 298 297 296 295 295 295 295 294
287 286 283 281 285 283 288 293 292 292 295 291 290 284 287 290 292 291 292 293 293 293 292 292 292 294 294 295 295 296 298 299 301 303 305 308 310 311 313 314 317 319 319 320 322 322 322 323 323 325 324 326 326 327 328 328 326 326 327 325 329 330 332 333 333 334 335 335 334 333 333 332 331 331 330 327 322 322 320 318 318 317 317 317 313 311 308 304 302 300 299 297 294 294 294 293 294
284 284 282 285 284 283 289 295 292 293 294 294 292 286 285 289 292 295 292 293 293 293 292 291 293 294 295 295 296 297 298 298 297 299 301 305 308 310 311 313 315 319 320 319 321 321 321 322 322 323 323 325 325 325 325 325 324 323 323 326 327 327 329 330 331 332 333 334 333 333 333 331 331 332 330 329 325 323 322 320 320 319 318 316 313 310 308 305 303 300 298 298 296 294 293 292 292
288 284 285 282 284 285 285 289 292 292 294 291 292 289 287 289 290 291 293 294 294 294 293 293 294 295 296 296 296 297 297 298 299 299 300 301 305 308 311 311 313 316 319 319 321 321 321 322 322 322 323 324 325 324 323 323 323 322 320 322 323 326 326 327 328 329 332 333 333 332 333 332 329 331 331 330 328 325 324 323 321 320 318 316 312 310 308 306 304 301 299 298 297 294 293 292 291
281 285 285 286 286 284 285 287 291 293 291 291 289 288 290 292 294 294 295 293 294 294 295 296 295 295 296 295 296 296 296 297 300 301 301 301 302 306 309 310 311 313 318 319 319 321 321 320 320 320 321 322 322 322 319 318 318 318 315 317 321 324 324 323 324 326 330 332 332 332 331 331 329 331 330 330 329 326 325 324 321 320 317 315 312 309 307 305 303 302 300 298 298 296 293 292 291
287 287 284 282 285 285 286 286 289 292 291 290 287 289 290 291 292 293 293 292 292 294 294 294 294 295 295 295 296 296 297 298 300 300 300 301 302 304 307 310 311 312 316 318 318 318 319 319 318 318 319 321 319 318 316 315 314 315 315 310 314 320 323 322 322 325 327 329 330 330 329 330 329 329 330 329 329 326 326 324 321 319 317 314 311 308 305 304 302 300 299 297 294 293 293 292 291
287 286 284 284 284 285 288 289 292 290 290 287 289 288 287 290 291 293 293 291 290 290 291 293 294 295 296 296 296 297 297 298 300 299 299 300 301 302 304 308 309 309 311 314 316 316 318 319 317 317 316 316 317 316 315 315 314 312 310 314 317 318 320 321 321 322 323 326 327 328 327 328 329 328 327 328 328 323 325 324 321 318 316 314 311 309 307 304 302 300 298 296 294 291 291 291 291
288 284 283 285 285 287 288 291 291 289 289 283 283 285 287 288 290 291 291 288 290 291 291 292 293 294 295 295 296 296 298 296 297 297 297 297 299 300 301 305 306 308 309 312 314 315 317 316 316 316 313 313 316 317 317 316 317 318 317 317 317 313 315 318 320 321 321 320 321 324 326 328 328 329 326 329 327 325 324 321 320 318 316 314 312 310 307 304 302 300 298 295 294 292 290 290 290
285 286 284 284 285 285 289 288 289 290 288 287 282 286 290 290 290 291 291 292 294 292 292 294 293 293 294 295 295 296 296 297 295 296 295 297 298 299 300 302 306 310 310 311 313 313 312 313 314 314 313 313 314 315 315 316 315 313 313 308 311 307 308 312 317 316 317 317 316 318 320 324 326 326 327 326 327 326 324 322 319 318 316 314 312 309 307 304 302 299 297 295 293 293 291 291 290
284 283 285 284 282 286 285 285 287 290 289 287 285 287 290 292 290 292 293 293 292 292 292 292 292 293 294 295 296 297 296 297 296 296 297 296 296 297 298 301 304 306 306 306 308 310 311 311 312 312 312 312 312 312 312 310 309 306 303 303 306 308 307 303 308 309 313 313 315 315 316 320 321 322 322 323 325 325 324 322 321 318 317 314 313 309 306 304 302 300 298 297 294 291 290 289 291
284 281 281 282 286 287 285 288 288 285 287 286 285 285 287 283 283 284 285 286 290 291 291 291 292 293 295 295 294 295 296 295 295 294 294 294 297 299 301 302 300 304 306 307 308 309 312 311 311 311 311 311 311 310 309 307 306 303 301 303 302 303 304 304 307 308 312 313 314 313 314 313 317 318 319 320 318 321 322 321 319 317 316 314 313 310 307 304 302 300 299 297 296 293 289 289 290
282 283 285 286 285 288 289 285 285 279 280 282 286 279 278 280 282 283 287 286 289 289 289 292 291 292 292 293 295 294 293 293 295 296 295 294 298 298 298 298 300 302 305 307 308 309 309 309 309 309 309 308 309 308 308 308 308 308 304 305 304 302 306 306 309 312 309 310 312 309 309 311 313 315 316 317 318 317 318 318 317 316 315 314 312 311 308 305 302 300 299 298 296 295 292 289 289
284 286 286 286 287 286 286 288 284 278 280 284 284 279 278 280 286 287 287 287 289 289 288 290 291 292 290 292 294 292 294 295 294 294 295 296 297 297 297 298 300 302 304 303 304 306 307 308 308 309 309 308 307 306 307 308 307 307 307 308 308 308 308 307 306 307 307 304 306 308 309 307 309 313 313 314 316 316 317 317 316 316 315 313 312 311 308 305 303 301 300 298 297 296 294 290 290
283 283 286 287 287 286 285 282 284 279 279 281 282 278 276 281 287 284 284 285 286 287 289 290 290 289 289 290 292 293 294 293 294 295 296 296 296 299 301 301 300 302 302 301 303 303 306 307 307 307 307 306 306 306 306 308 309 307 306 306 306 307 307 306 304 304 303 304 304 305 305 305 305 307 310 312 313 314 315 316 316 316 315 314 311 311 309 306 304 302 300 300 298 297 295 293 292
283 287 287 286 287 285 283 281 280 282 281 281 278 283 281 278 284 285 285 287 284 287 289 289 289 289 289 289 290 291 292 293 294 296 296 298 298 298 298 299 300 299 300 302 303 304 305 304 305 304 306 305 304 305 306 306 308 307 307 306 305 305 305 303 300 301 302 301 303 300 302 304 304 303 305 309 311 313 312 315 315 314 314 313 310 311 310 307 304 302 300 299 298 297 296 296 294
291 288 288 286 285 284 281 280 284 278 277 277 280 282 278 277 280 283 280 286 284 286 288 289 288 288 289 289 289 289 291 293 294 295 294 295 295 295 296 297 298 299 299 300 300 300 301 300 302 303 304 304 304 305 305 306 306 306 306 305 306 304 301 297 297 299 299 299 302 301 300 301 302 303 305 306 309 310 311 312 313 314 313 313 308 311 310 307 305 303 301 299 299 297 296 296 295
290 287 288 284 282 280 278 278 277 278 274 275 279 282 280 277 279 282 283 286 285 286 285 288 290 293 293 293 290 294 296 296 294 295 294 293 293 293 294 297 297 297 297 298 298 298 299 300 300 302 303 303 303 304 304 305 305 305 306 305 305 304 301 300 298 298 298 298 302 302 302 302 301 303 304 304 306 308 309 309 311 312 312 309 308 310 309 307 305 304 302 300 299 298 297 296 296
289 284 280 280 280 278 276 272 275 273 270 274 278 281 280 274 276 281 283 285 286 287 291 291 294 295 295 295 296 295 295 295 294 294 296 292 296 295 294 296 295 295 296 296 297 298 298 298 299 301 301 302 301 303 303 304 304 304 305 305 304 304 302 302 301 300 299 300 302 303 304 303 303 302 303 303 304 305 307 308 308 310 310 310 309 310 310 308 306 304 302 301 300 299 299 296 296
286 283 283 277 273 271 273 270 274 271 274 281 279 281 280 281 282 287 286 287 287 285 290 294 295 295 296 298 296 294 291 292 294 294 293 293 293 293 294 294 294 295 296 296 297 297 296 297 299 301 302 300 301 301 302 303 303 304 304 304 304 304 303 303 302 301 300 300 301 303 303 302 302 301 301 302 303 303 304 306 307 308 309 309 309 309 309 308 307 305 303 301 300 299 299 297 296
284 285 279 275 271 270 267 264 265 268 274 277 281 283 280 280 283 289 292 291 288 287 287 289 292 296 296 294 293 294 292 292 292 292 291 291 292 292 292 292 293 294 294 295 295 296 297 299 299 300 302 300 299 300 301 302 302 304 303 304 304 303 303 303 303 302 301 301 301 302 302 302 302 302 302 301 303 303 303 305 306 308 309 309 308 309 308 308 306 305 303 302 301 300 299 297 297
286 283 285 280 272 268 267 265 271 273 273 275 278 277 276 278 283 288 288 290 287 286 289 289 289 290 291 292 290 290 291 293 290 293 294 294 295 293 293 293 293 294 294 295 294 297 297 299 299 299 300 298 299 300 300 301 302 302 302 303 303 303 304 303 303 303 302 300 301 301 301 301 302 302 302 302 301 302 302 303 305 306 308 308 308 307 307 307 306 304 303 302 301 301 300 298 297
284 282 281 278 278 275 274 269 270 268 271 272 275 278 278 282 286 287 289 289 291 290 289 289 289 288 289 291 292 292 291 292 292 293 294 295 295 292 292 293 294 293 293 294 296 297 298 300 298 299 300 300 298 298 300 301 301 301 300 301 302 302 302 302 302 301 302 301 301 302 301 301 301 301 302 301 301 301 302 302 303 304 306 307 307 307 307 306 305 304 303 302 301 301 300 298 297
284 285 281 281 281 279 272 272 276 273 270 275 271 279 281 281 284 290 291 288 290 288 288 286 287 288 287 288 288 289 290 289 289 294 295 296 294 293 294 293 293 293 293 296 298 299 300 299 299 299 299 297 298 298 299 299 299 299 299 300 300 300 301 301 303 302 301 301 301 302 302 301 301 301 301 301 301 301 302 302 302 303 304 305 306 306 306 306 305 303 302 301 300 300 299 298 297
285 281 283 285 285 282 278 273 267 267 271 273 274 277 278 277 278 282 285 286 286 286 288 285 287 287 287 290 289 290 290 290 290 292 293 294 293 293 293 294 294 295 295 295 297 298 299 300 300 300 299 299 298 298 298 298 299 299 299 299 300 301 302 301 302 301 301 300 300 301 301 301 301 302 302 301 300 300 300 299 301 302 302 303 303 304 305 304 304 303 302 301 301 300 298 297 296
284 281 285 286 279 278 278 273 271 268 266 269 273 274 276 280 282 283 284 285 287 285 283 285 288 288 287 288 288 287 288 288 291 293 292 293 293 294 294 294 294 294 294 295 296 297 298 298 299 300 300 300 300 299 297 298 299 300 300 300 299 300 300 301 300 300 300 300 300 300 301 301 301 301 301 300 299 299 299 299 300 300 300 300 301 301 302 302 302 300 298 297 296 295 295 295 295
289 288 287 284 280 276 276 278 272 274 269 266 272 275 280 281 281 284 286 284 284 286 285 286 287 287 287 288 290 290 293 293 292 292 291 292 293 292 292 292 293 294 294 295 295 295 297 299 298 298 298 297 296 297 297 298 298 299 299 298 298 299 299 300 300 300 300 300 300 300 300 300 301 300 300 300 299 298 297 297 297 298 298 298 298 298 298 299 298 299 298 297 296 295 295 294 293
286 285 283 286 282 283 279 279 275 275 263 265 268 272 278 281 285 286 287 288 288 289 290 286 286 287 286 286 291 293 294 295 294 292 292 293 293 292 290 289 290 289 290 292 293 296 297 297 297 298 298 298 297 298 297 298 298 297 296 297 297 297 297 298 298 299 299 300 300 299 299 300 298 299 299 298 297 297 297 296 296 296 296 296 296 295 295 296 296 297 297 297 296 295 295 294 293
289 288 285 287 282 278 275 276 278 272 274 272 266 275 282 282 287 289 286 288 288 286 287 289 291 291 292 295 294 293 296 296 293 292 291 293 292 291 290 288 287 287 290 290 294 293 294 296 297 297 297 298 297 297 298 298 297 297 296 296 295 295 297 297 297 297 296 296 295 296 297 295 297 298 297 297 296 295 295 295 295 295 295 295 295 296 293 293 295 295 296 295 294 293 293 293 290
Wind_Speed
4 4 3 2 3 3 2 3 1 3 2 0 0 1 3 0 1 3 2 1 2 3 0 2 3 2 1 3 8 5 0 2 2 4 2 2 1 8 9 6 8 7 7 5 4 3 3 4 10 10 12 12 12 12 11 12 12 12 13 13 13 14 14 14 15 14 14 14 14 14 14 15 15 14 14 14 15 17 17 17 17 16 18 20 20 19 18 17 19 19 19 19 18 18 18 18 20
2 4 1 1 1 2 1 1 2 1 6 2 1 1 2 1 3 7 5 2 2 2 1 4 6 10 11 10 7 3 3 2 1 1 0 0 5 5 8 8 9 10 7 5 4 3 3 7 11 10 12 12 12 12 11 11 12 12 13 13 13 13 14 14 14 14 14 14 14 14 14 14 15 14 13 15 16 16 15 17 17 16 19 19 20 20 18 18 19 20 19 19 18 18 17 17 19
2 3 2 4 4 4 1 3 1 1 5 1 2 2 1 3 6 4 3 3 4 3 4 6 7 5 2 3 2 1 1 2 1 0 2 3 10 5 7 9 9 8 9 7 5 3 3 7 11 11 13 13 13 12 11 11 12 12 12 13 13 13 13 13 13 14 14 13 14 14 14 14 15 13 14 14 14 15 15 16 16 17 19 19 19 19 17 18 19 18 18 18 18 18 18 18 19
1 3 2 3 1 3 1 2 3 6 5 5 1 1 2 6 4 4 2 2 3 3 2 2 2 1 4 3 2 3 2 1 1 3 4 5 4 8 9 10 8 7 7 6 4 4 4 8 11 12 12 13 13 12 12 12 13 12 12 13 13 13 13 13 13 13 13 13 13 13 13 13 14 14 15 16 15 17 17 16 17 18 20 21 20 20 18 17 18 18 17 18 18 19 20 20 20
2 1 3 4 3 2 0 0 4 3 4 4 5 3 2 3 6 4 1 1 1 0 0 2 3 2 1 5 1 1 3 1 1 0 2 1 5 8 10 9 8 8 7 6 5 4 5 10 11 11 13 13 13 12 12 12 12 13 12 12 13 13 13 13 13 13 13 13 13 13 13 13 12 14 16 15 15 15 16 17 17 18 19 18 18 18 16 18 18 17 18 18 19 19 19 19 20
5 4 3 2 0 2 5 1 2 1 5 4 4 4 5 5 7 4 2 0 0 1 2 2 3 4 1 1 1 2 2 4 3 0 3 5 9 9 10 9 9 8 7 6 5 5 5 9 11 12 13 13 13 13 12 13 13 13 12 13 13 13 13 13 13 13 13 13 13 13 12 12 12 12 14 16 16 16 16 16 17 19 18 18 19 18 18 17 19 18 17 18 19 19 19 19 19
1 4 4 4 1 4 3 3 3 3 1 5 5 4 8 5 4 7 3 3 0 1 0 1 4 4 4 1 1 0 2 3 3 3 3 7 8 10 10 9 10 9 8 7 6 5 6 10 11 13 12 12 13 13 12 13 13 13 13 13 13 13 13 13 13 13 13 13 13 13 12 12 12 13 13 13 14 15 15 16 17 18 19 18 18 17 16 17 18 17 17 18 19 20 20 19 19
1 2 1 2 1 2 0 2 2 2 1 4 4 10 6 6 5 4 4 3 2 2 1 2 2 4 0 3 2 2 5 0 2 3 5 7 7 11 10 10 10 9 9 7 6 5 8 11 12 12 13 13 12 13 13 13 13 13 13 13 13 13 14 13 14 13 13 14 13 13 13 12 12 13 13 12 13 13 13 14 14 14 15 16 16 16 16 17 17 17 16 17 18 18 19 19 19
3 3 1 4 0 3 2 0 1 2 1 3 1 1 8 7 6 6 3 1 0 0 1 2 2 5 2 2 0 3 4 3 1 5 7 6 9 10 8 9 11 9 9 8 7 6 6 10 12 13 13 12 12 13 13 13 13 13 13 13 13 14 14 14 14 14 13 13 13 13 13 13 13 13 13 13 14 14 14 15 16 16 16 17 17 16 16 17 17 16 16 17 17 18 18 19 19
2 2 1 1 1 0 2 1 3 2 2 3 7 6 5 4 4 4 5 3 3 2 2 0 1 1 2 4 1 2 1 0 2 5 5 7 8 8 8 9 11 11 9 9 8 7 6 10 12 13 13 13 12 12 13 12 13 13 13 13 14 14 13 14 14 13 14 14 14 13 13 13 13 13 13 13 13 14 14 15 15 16 16 17 16 16 16 16 17 16 17 17 17 18 18 18 18
1 4 2 2 2 1 3 3 2 1 1 0 1 4 8 6 6 4 3 4 0 3 0 0 3 4 3 1 3 3 3 1 5 10 6 6 6 8 6 6 9 11 10 10 8 7 7 7 12 12 12 12 12 12 11 12 12 13 13 13 14 13 13 14 14 14 13 14 13 13 13 13 13 13 13 14 15 14 14 15 15 15 15 16 16 16 15 17 17 16 17 17 18 18 18 18 18
1 1 2 2 1 3 4 4 2 1 1 0 2 2 2 6 5 4 2 5 2 1 3 4 3 5 3 0 1 1 1 2 4 6 5 4 5 4 6 6 7 8 11 9 8 7 6 6 7 10 11 12 12 11 11 11 11 11 11 12 14 13 14 14 14 14 14 13 13 13 13 13 13 13 14 14 14 14 14 15 14 14 15 15 16 16 16 17 16 16 17 17 17 18 18 18 18
2 1 4 3 1 1 1 4 3 0 0 3 5 2 4 6 6 8 6 5 3 4 2 4 4 3 1 1 2 1 3 7 4 4 3 3 3 3 5 7 8 7 10 9 9 7 7 6 6 6 7 11 11 11 10 10 10 10 11 12 12 12 12 13 14 14 14 14 13 13 13 12 12 13 13 14 14 14 15 14 14 14 15 16 16 16 16 16 16 16 17 18 18 18 18 18 18
2 3 4 1 0 3 5 2 1 4 2 3 2 1 4 3 4 8 7 6 4 5 2 3 2 5 2 1 1 4 7 6 4 3 2 2 3 3 5 6 8 7 8 10 9 8 7 6 6 6 7 6 6 9 10 10 10 10 10 11 11 12 12 12 12 12 13 13 12 11 10 10 11 12 12 13 13 14 14 12 14 15 15 16 16 16 16 17 16 16 17 18 18 18 18 18 18
0 2 3 2 1 1 2 5 9 4 4 3 2 3 2 2 5 3 9 6 6 4 1 0 3 3 4 7 4 9 11 9 6 2 3 3 4 4 4 7 8 7 8 8 8 9 8 6 6 6 6 6 6 5 5 7 10 10 10 10 11 11 12 12 11 11 11 11 12 11 10 9 9 10 11 11 11 10 10 12 14 14 15 16 16 16 17 16 15 16 17 18 18 18 18 18 18
2 5 2 0 1 2 2 1 1 3 2 4 1 4 5 1 1 5 4 4 2 1 0 1 1 1 2 7 3 12 10 8 5 4 5 5 4 4 4 6 7 7 7 7 8 8 8 7 6 6 6 6 6 5 6 6 8 10 10 11 11 11 12 12 11 11 11 12 12 12 11 8 8 7 11 9 11 10 9 8 11 12 16 16 16 17 17 15 16 16 17 17 17 18 18 18 17
2 3 1 3 1 0 1 1 5 3 1 2 2 3 5 1 0 0 1 1 7 0 4 1 1 2 2 4 4 10 10 8 7 6 6 5 5 5 5 6 6 6 5 7 7 7 8 8 8 7 6 7 6 6 6 6 7 9 8 10 11 11 11 12 12 12 11 11 11 11 11 8 6 6 6 6 9 7 9 10 11 14 16 16 16 17 17 16 17 17 17 18 17 17 16 17 16
1 1 3 1 3 1 2 2 7 1 7 4 4 4 6 2 0 0 1 5 3 2 4 2 3 4 2 3 1 9 11 11 9 10 7 6 5 5 6 6 7 8 7 7 6 8 8 7 9 8 7 7 7 6 5 6 5 7 6 6 6 8 10 10 10 8 8 7 10 9 6 7 6 5 5 6 6 8 8 10 11 13 16 14 15 18 17 17 17 17 17 17 16 14 12 8 9
2 2 2 4 4 2 3 2 3 2 3 8 6 3 6 5 6 2 3 0 2 2 1 3 2 4 6 4 5 11 10 10 9 9 11 11 9 10 9 6 7 7 8 7 7 9 8 7 7 8 8 8 8 7 6 6 7 5 5 6 5 7 8 8 7 8 7 7 6 6 6 5 6 6 5 6 6 10 9 11 11 12 13 14 15 16 17 17 17 17 17 16 14 12 8 6 6
1 3 2 3 6 1 3 1 1 3 2 5 5 3 3 1 4 1 2 4 1 6 4 1 1 2 3 3 5 7 9 9 9 10 11 11 10 10 9 9 8 9 9 9 8 7 8 8 8 8 9 9 8 7 6 7 7 6 6 6 6 6 6 7 7 7 7 7 7 6 5 5 5 6 7 8 7 6 8 11 13 12 13 13 14 11 13 14 16 16 16 14 9 6 6 6 6
1 3 2 3 3 1 0 1 1 2 5 7 5 2 2 1 4 3 3 5 4 5 6 9 10 8 9 7 7 7 9 9 9 8 9 9 8 7 10 12 13 11 8 6 6 8 9 9 8 8 8 8 9 7 8 8 8 6 6 6 6 6 7 6 7 7 7 7 6 6 6 5 5 5 6 6 5 5 5 6 7 6 6 6 9 6 6 8 7 7 7 7 6 6 6 5 5
3 1 2 2 1 1 2 1 3 1 4 6 3 7 5 1 1 3 8 6 7 8 8 9 9 11 14 12 10 7 9 10 11 11 12 13 14 13 8 5 3 3 4 7 10 9 9 9 8 7 8 9 9 8 8 8 9 7 7 7 7 6 7 7 7 7 7 7 6 6 6 6 6 6 6 6 6 6 5 5 6 6 5 5 6 7 6 6 6 6 6 7 6 6 6 5 4
2 1 1 2 2 1 0 0 4 2 4 5 6 3 2 4 1 2 7 8 4 6 5 12 8 13 16 12 12 10 10 12 12 14 14 13 12 11 11 9 9 9 8 10 9 8 8 8 8 7 9 9 10 9 8 8 8 8 7 7 8 7 7 7 7 8 8 7 7 7 8 7 6 6 6 6 6 6 6 5 6 6 6 5 4 7 7 6 6 6 6 6 6 7 6 6 5
4 3 0 1 0 2 1 1 2 3 9 4 2 1 3 3 2 1 3 6 6 2 0 3 4 7 11 13 14 16 17 16 17 17 16 18 18 18 16 14 11 7 7 10 9 9 9 11 9 8 9 9 9 9 9 8 8 8 8 8 8 8 8 8 7 8 8 8 8 8 8 7 8 7 6 6 6 5 6 6 5 5 6 6 4 4 8 6 7 7 7 6 7 6 7 6 5
2 1 2 1 1 0 1 1 2 2 2 0 4 4 3 5 2 1 5 8 6 5 1 4 8 10 9 11 14 11 10 9 10 11 8 8 8 6 4 5 5 7 10 11 10 10 11 10 9 11 10 10 9 9 9 8 8 8 7 8 8 8 8 8 8 8 8 8 9 9 9 8 7 7 7 7 6 6 5 6 6 6 5 6 6 4 6 7 6 6 7 7 6 7 6 6 6
3 2 4 1 0 0 0 1 1 1 0 1 3 0 3 4 3 3 9 7 6 2 3 4 7 9 10 12 14 13 13 14 14 10 15 12 6 7 9 9 9 11 13 12 11 11 9 10 11 12 12 11 10 9 8 8 9 9 8 8 8 9 8 8 8 8 8 8 8 9 10 9 9 9 8 7 8 7 6 5 6 6 6 5 6 6 5 7 8 7 6 7 7 7 7 5 5
3 4 3 4 0 0 0 0 0 0 1 0 2 1 0 2 3 7 2 6 2 4 5 2 8 10 11 9 10 12 13 15 16 15 6 6 8 10 11 9 11 14 10 11 11 11 10 11 12 12 11 11 9 10 9 9 9 9 9 8 8 9 9 9 8 8 8 9 8 10 10 10 9 8 9 9 7 8 7 7 6 6 6 5 5 6 5 6 6 7 7 7 7 7 6 5 5
5 7 4 4 4 1 0 1 1 0 0 1 4 1 1 2 2 8 3 1 5 7 5 5 5 7 9 9 10 10 11 13 10 6 13 12 12 13 13 13 14 12 12 14 13 10 10 13 13 13 12 11 11 11 10 10 10 10 9 8 9 9 9 8 9 8 8 8 9 10 10 10 9 9 10 9 9 9 8 8 7 7 7 6 6 6 6 6 7 7 7 6 6 7 7 6 5
5 5 1 3 4 1 1 2 1 1 1 1 0 0 1 1 5 10 1 1 3 6 6 6 6 6 7 7 8 7 12 11 7 8 13 14 13 12 15 15 14 13 12 14 12 10 14 13 13 14 12 11 13 13 11 10 9 9 9 9 8 9 9 8 9 9 9 8 8 10 10 11 10 9 9 10 10 10 10 9 9 9 8 6 6 8 8 7 8 8 7 7 7 7 8 7 6
3 4 4 3 2 3 3 1 1 1 1 2 0 2 7 7 12 5 4 5 1 3 6 6 6 5 5 5 7 9 8 6 8 13 13 12 11 11 14 13 12 12 11 8 8 12 11 9 10 10 12 13 14 12 10 9 9 9 8 8 8 9 9 9 9 9 9 9 9 9 10 10 11 10 10 10 9 9 9 10 10 9 8 8 8 8 8 6 7 8 9 9 8 8 8 7 7
3 1 3 1 1 2 3 1 1 4 1 1 1 2 7 7 9 7 5 4 5 6 6 5 6 5 5 5 6 8 10 10 14 14 13 13 11 10 13 11 11 11 7 7 13 15 11 11 10 9 12 13 12 13 12 11 9 9 9 8 8 9 9 9 8 8 9 9 9 9 10 9 11 11 11 11 11 9 9 9 10 10 9 9 9 9 9 7 6 7 9 10 8 7 7 6 7
2 4 2 2 2 4 6 1 5 4 1 4 4 1 8 8 9 6 5 1 5 6 5 5 5 6 7 6 8 9 11 10 12 12 12 13 11 11 12 13 11 11 13 13 11 8 11 11 11 11 11 13 13 13 11 10 10 9 8 8 8 9 8 9 8 9 8 8 10 10 11 11 10 10 10 10 10 10 10 10 10 9 10 9 8 9 10 10 8 7 6 9 11 8 9 7 6
4 3 1 1 1 3 3 1 1 2 1 2 2 5 3 3 3 1 3 4 2 4 5 5 6 7 7 7 8 9 10 10 9 12 13 12 11 11 11 11 12 14 13 10 11 10 11 12 12 12 13 15 13 12 10 8 8 8 8 8 9 8 8 8 8 7 8 8 8 9 10 10 12 11 10 11 11 11 10 10 9 9 8 8 9 9 9 9 10 9 8 5 8 11 10 10 7
3 2 2 3 2 1 2 3 0 0 1 2 1 2 6 4 7 7 8 2 1 2 5 6 6 7 8 7 7 9 9 11 12 12 16 13 11 11 11 10 11 10 10 11 11 13 14 12 12 13 11 11 11 11 10 9 8 7 7 7 7 9 8 8 7 8 8 8 8 9 10 10 10 11 12 10 10 11 11 10 9 9 9 7 7 8 8 8 8 9 9 4 4 9 10 10 9
5 2 0 2 0 3 2 1 1 1 2 2 0 2 9 12 10 9 10 2 3 6 8 8 8 8 9 8 9 9 10 11 16 12 10 11 12 11 10 10 9 9 9 11 10 10 8 9 9 10 10 10 10 9 7 7 6 5 5 6 6 8 7 7 7 8 8 8 9 9 9 9 10 11 11 12 10 10 10 9 10 11 11 10 9 8 8 9 8 8 10 8 4 2 7 8 10
8 8 6 3 3 3 2 3 2 2 1 3 4 7 8 10 10 10 10 4 5 9 8 8 9 10 9 9 9 10 11 14 15 7 5 7 9 10 10 9 8 8 8 8 9 9 9 8 7 8 9 9 7 6 6 6 6 7 8 4 5 8 8 8 7 8 7 8 9 9 9 9 9 10 10 10 10 10 10 10 11 10 10 10 11 10 9 10 13 12 10 11 10 7 5 8 9
4 4 4 2 3 2 2 1 1 0 0 6 7 6 6 10 11 12 10 4 3 6 9 11 10 11 10 10 10 13 12 16 9 4 5 6 8 8 6 5 6 5 5 7 8 9 10 11 9 11 8 6 8 8 8 9 9 6 5 10 12 8 8 7 8 7 8 8 9 9 9 9 9 10 10 10 9 9 10 11 12 11 11 11 11 13 13 13 13 13 13 11 14 11 7 8 7
6 6 5 0 0 1 1 0 1 2 1 2 2 4 9 11 11 11 9 4 10 11 12 12 14 12 10 10 13 13 14 6 6 7 5 5 6 6 6 6 6 7 9 9 11 13 12 9 10 10 7 8 9 10 10 9 9 11 11 11 9 6 7 8 9 7 8 6 7 8 9 9 10 11 11 11 11 9 8 8 11 14 13 12 11 11 12 12 12 10 9 8 6 13 11 12 11
2 3 3 2 1 2 3 2 2 1 2 7 3 6 13 9 9 10 9 12 10 6 9 11 10 10 9 11 13 12 8 12 6 7 5 6 7 5 5 6 7 11 10 11 10 7 7 8 9 8 8 9 9 9 9 10 8 5 5 3 5 2 1 3 4 4 4 5 6 7 8 8 10 10 10 12 12 12 11 10 10 10 13 12 11 11 11 12 12 14 15 14 10 4 5 9 13
5 4 1 3 2 1 2 3 2 1 1 2 3 7 14 9 5 10 11 8 6 6 7 9 8 10 11 14 12 10 12 12 10 8 9 7 5 5 4 6 10 7 6 5 6 9 8 8 8 9 9 9 9 9 9 5 4 2 2 2 2 3 4 2 1 1 5 5 8 7 6 7 7 8 8 8 11 11 12 12 12 12 12 12 13 12 12 12 11 10 10 11 14 13 9 10 10
1 3 3 2 1 1 3 1 1 1 1 2 3 5 11 4 2 3 2 2 3 6 4 6 9 10 11 9 7 10 12 8 8 8 8 6 5 7 10 8 4 7 8 8 9 10 9 12 11 11 9 10 9 8 8 6 5 4 3 5 4 3 2 2 3 4 6 7 5 7 7 3 5 6 7 9 7 9 10 11 11 12 13 12 11 12 13 14 14 15 15 13 13 15 13 10 11
2 3 5 2 4 4 1 2 2 6 2 3 2 4 6 5 4 8 10 5 7 4 3 10 10 7 6 9 15 8 5 5 9 10 6 5 7 5 4 4 6 6 8 9 8 9 7 8 8 8 7 7 8 7 8 8 8 8 7 6 5 4 6 5 10 11 8 7 8 2 2 4 5 5 6 6 8 8 10 10 11 11 11 11 11 11 12 11 13 14 15 14 14 11 15 14 13
1 3 4 5 7 5 3 0 2 1 1 1 3 2 9 5 8 6 7 6 10 10 7 13 12 11 6 8 7 5 6 7 5 5 5 5 5 5 5 6 7 7 9 5 5 6 6 7 7 8 8 7 6 6 7 8 6 7 10 10 9 10 10 8 5 4 6 5 3 5 6 5 5 6 6 6 6 8 8 8 10 11 11 10 11 11 11 14 14 15 14 14 15 12 10 13 16
2 1 5 6 6 4 3 3 2 3 1 4 2 3 3 11 9 3 1 4 8 9 12 12 10 7 7 7 7 7 6 5 5 6 6 5 4 6 9 8 7 10 5 4 5 5 7 8 8 8 6 6 6 7 8 9 10 8 8 8 8 9 10 8 7 6 4 5 6 6 5 5 5 5 5 6 7 7 8 8 9 9 10 10 10 11 12 12 11 11 15 15 12 11 14 15 14
2 2 7 4 5 4 5 3 3 0 2 8 3 0 1 5 10 3 1 7 7 10 11 10 10 7 7 6 7 7 6 6 5 6 7 7 7 6 5 6 6 3 4 6 7 6 6 5 5 5 6 6 5 7 9 8 9 10 10 9 9 8 7 6 4 4 5 5 6 4 5 5 5 4 5 5 7 8 8 10 10 9 9 10 11 10 11 13 16 15 14 12 12 12 12 12 13
1 4 6 6 6 6 3 3 2 2 2 8 3 2 2 8 9 7 3 1 6 7 8 8 7 8 7 6 6 6 5 5 4 4 4 4 4 3 3 2 1 4 2 2 3 3 4 4 4 5 6 6 6 7 8 9 8 8 9 9 11 8 5 3 3 5 5 4 7 6 5 5 5 5 6 5 7 8 9 8 9 11 10 9 10 11 11 13 14 15 17 17 15 14 11 11 14
6 5 7 6 8 4 3 6 2 2 4 6 7 6 4 6 6 6 1 2 2 4 4 4 5 4 4 3 4 3 2 1 1 1 2 3 2 2 1 1 2 1 2 3 4 3 3 4 4 6 6 6 6 8 8 9 8 7 9 10 10 9 7 6 6 6 6 5 7 7 7 7 7 7 7 7 7 8 8 8 8 8 8 8 9 10 12 13 13 14 14 15 15 17 13 13 11
5 2 3 4 2 7 3 4 5 1 6 5 1 2 2 6 6 5 7 5 3 3 2 5 5 5 4 4 1 1 2 2 2 1 1 3 3 2 3 1 1 2 2 3 3 2 2 3 4 6 5 6 6 6 7 8 8 9 8 9 10 9 9 9 10 10 9 10 9 9 7 7 8 7 8 7 8 6 7 7 7 6 7 8 10 10 10 11 10 10 10 13 13 15 14 13 12
6 6 7 4 3 5 3 3 2 5 6 0 4 1 1 13 7 7 8 7 6 7 2 1 1 1 1 1 2 3 3 3 2 1 2 3 3 2 2 3 3 3 4 3 3 4 4 4 5 7 8 6 7 6 8 8 8 9 10 9 9 8 9 10 10 10 8 10 9 8 8 9 7 8 8 8 8 8 7 7 7 7 7 8 9 9 9 10 11 12 13 14 14 15 15 15 13
6 7 6 5 1 1 4 4 2 6 5 5 2 1 6 3 4 13 14 8 5 6 5 4 4 1 1 2 3 4 2 2 4 5 4 4 4 4 3 4 4 4 4 4 4 4 4 5 6 7 8 6 6 6 8 8 10 9 9 9 9 8 10 10 10 9 9 9 8 10 10 10 9 10 9 10 8 9 8 9 9 9 9 9 9 10 10 10 10 11 12 13 15 14 13 16 16
8 3 10 9 9 5 4 3 4 6 5 3 5 1 7 2 1 3 6 8 4 4 5 6 5 4 5 5 5 4 3 2 4 5 5 5 5 3 4 4 5 5 4 4 4 4 4 5 5 7 6 5 6 7 7 9 9 8 7 8 8 8 9 8 8 8 8 9 8 9 9 8 9 9 9 8 7 9 10 9 9 10 10 10 10 10 10 10 10 10 11 13 13 12 13 13 13
0 3 6 5 7 5 1 5 3 1 2 2 1 6 4 5 3 8 6 8 9 4 5 5 7 5 5 5 5 2 3 4 4 5 6 7 6 5 5 5 5 5 5 4 5 5 6 7 6 7 8 6 7 7 7 9 8 7 7 8 9 9 8 8 7 7 7 8 9 10 9 9 9 8 7 8 9 9 10 10 10 10 10 10 10 11 11 10 11 11 10 11 13 10 12 14 13
4 4 6 6 3 7 4 1 1 1 3 10 2 8 6 8 6 9 8 5 9 5 5 6 5 8 3 4 0 2 4 4 4 5 6 7 6 5 6 6 5 5 5 7 7 7 9 8 7 7 7 5 6 7 8 7 7 7 8 8 8 8 9 10 10 9 9 8 8 9 9 9 8 8 8 8 9 10 10 11 11 12 11 10 10 10 11 11 11 12 12 12 13 12 13 15 14
7 3 7 1 2 4 4 5 2 1 4 8 2 9 4 3 9 3 1 2 6 6 4 3 7 7 6 6 4 2 4 4 5 5 5 6 5 6 5 5 6 7 7 6 8 7 7 7 8 9 7 8 7 7 7 7 8 9 8 9 9 10 10 10 9 8 8 8 8 8 8 8 9 9 8 8 9 10 10 11 11 11 11 10 11 10 11 11 11 10 12 13 13 12 14 12 12
4 3 3 6 3 2 2 4 4 1 3 7 4 2 7 10 9 1 1 2 2 3 3 4 8 8 5 5 4 3 4 3 4 5 5 5 5 5 6 6 5 5 6 7 7 5 5 6 7 8 10 10 8 7 6 6 7 8 8 10 10 10 8 8 7 7 7 9 10 9 9 9 8 9 9 9 10 10 10 10 10 10 10 11 10 10 10 10 10 10 9 9 7 7 9 11 11
1 3 4 1 4 2 5 6 4 5 5 1 8 3 13 4 7 9 6 7 6 6 5 5 6 6 4 4 2 2 5 3 2 2 2 3 5 6 5 4 5 5 5 6 6 4 7 9 7 7 5 5 5 6 7 9 9 9 8 6 7 7 7 8 8 8 9 10 10 9 9 8 10 7 8 9 9 10 10 10 9 9 10 10 10 10 9 10 9 10 10 10 10 11 11 11 10
3 3 4 1 0 2 4 1 4 4 4 5 4 8 8 2 7 9 9 8 8 7 7 5 6 3 3 2 1 3 3 4 2 2 3 4 5 5 4 3 4 4 4 4 5 7 8 6 7 6 8 8 8 8 8 9 8 9 8 9 8 8 9 8 8 9 10 10 9 9 9 9 6 9 8 9 9 9 9 10 10 11 11 11 10 10 9 9 9 10 10 11 11 11 13 12 11
13 13 11 12 9 4 4 8 2 1 2 5 1 13 9 5 3 8 8 10 8 3 5 3 3 4 5 1 0 0 2 1 2 4 4 5 5 5 5 5 3 4 6 5 6 5 6 7 8 6 6 7 8 8 8 8 7 7 9 9 8 7 8 8 9 9 10 10 9 9 8 7 9 9 8 10 9 8 8 9 10 11 11 10 10 11 10 9 10 11 11 10 10 12 12 10 7
Wind_Direction
331 323 280 199 80 98 62 3 145 310 69 139 81 68 188 110 212 78 143 309 62 290 234 12 28 82 177 184 143 141 171 126 204 131 213 234 173 145 146 136 131 134 143 150 159 162 168 169 131 131 136 136 127 125 125 125 122 118 115 110 105 103 100 97 94 91 89 87 86 85 83 85 90 91 87 91 89 83 84 82 83 86 89 85 87 85 88 93 95 92 89 83 77 77 83 91 95
301 304 311 159 109 79 238 126 94 355 37 54 203 106 165 300 75 147 172 172 190 161 189 84 67 70 73 99 118 122 35 10 205 177 229 142 110 126 148 143 142 146 144 146 153 159 154 133 131 136 134 135 132 128 127 126 124 120 116 111 106 103 101 98 96 94 93 91 90 90 88 88 94 95 96 93 92 89 89 87 87 89 87 90 90 90 90 94 96 96 89 82 76 79 84 92 99
325 345 29 34 25 72 63 38 281 47 97 151 271 208 331 101 148 217 219 180 180 138 123 95 92 75 60 35 28 23 222 348 93 110 99 148 126 190 157 147 147 141 143 152 152 156 143 138 138 139 137 139 133 131 129 126 123 123 114 111 108 103 100 98 96 96 95 94 95 94 93 91 90 92 98 91 92 100 99 100 95 88 88 88 86 85 90 98 99 92 87 79 75 79 85 92 94
110 27 115 77 295 27 68 29 90 127 125 202 102 281 151 158 192 202 226 207 152 118 174 151 72 233 105 50 146 94 70 118 241 154 136 181 204 154 154 146 138 134 135 147 152 151 143 148 144 142 140 138 136 133 130 129 129 123 117 114 109 105 102 98 97 97 96 97 96 95 94 95 101 103 89 84 80 79 76 83 90 87 83 83 85 89 90 93 98 93 82 77 77 81 87 91 91
69 341 75 91 104 353 92 167 136 97 144 197 164 268 225 201 165 187 210 272 271 83 65 139 80 349 149 129 117 145 210 98 154 7 130 188 125 146 145 140 136 136 142 147 148 145 151 153 148 139 142 141 138 135 134 134 130 125 121 117 113 110 106 103 101 99 99 98 97 95 95 94 91 92 93 88 85 84 87 86 87 89 90 87 85 87 94 100 98 92 82 78 81 85 88 92 92
57 51 5 86 346 168 51 42 51 133 220 155 122 214 207 212 156 182 152 283 305 290 203 77 152 176 20 328 178 116 170 128 201 267 153 171 144 149 144 140 138 142 147 144 148 149 154 157 145 143 144 142 139 139 138 137 132 129 125 122 119 115 110 108 104 102 103 102 100 98 96 95 91 86 94 99 91 90 92 91 88 89 90 92 92 90 101 104 97 89 82 78 84 85 87 86 87
9 43 354 25 7 54 189 142 169 174 269 150 174 171 187 208 200 127 141 120 308 46 312 151 116 83 72 299 19 140 284 231 126 204 156 155 141 145 144 145 141 146 148 149 149 154 159 154 150 145 143 144 143 143 143 138 137 133 129 128 125 121 118 114 111 109 107 106 106 104 102 99 95 94 92 97 107 99 98 97 92 92 92 91 92 101 105 102 99 91 80 80 84 84 84 89 90
72 103 305 92 242 42 23 204 200 155 359 169 199 145 195 193 168 137 152 99 195 121 24 107 113 100 272 39 164 279 341 338 230 155 139 136 142 142 146 146 143 148 149 151 154 157 160 156 152 145 145 146 147 147 144 145 141 138 136 135 132 129 126 121 118 117 115 114 112 110 109 107 104 99 96 94 96 99 94 89 99 99 99 98 100 103 106 104 104 91 78 76 77 84 87 90 88
358 85 2 67 323 27 70 117 295 230 314 90 119 215 175 176 168 127 124 225 43 34 161 151 203 93 216 46 85 280 305 324 106 131 136 145 141 142 144 149 143 147 150 153 155 157 158 159 151 151 148 148 150 149 150 148 146 144 142 140 137 134 130 125 122 121 121 120 118 116 114 112 110 107 105 102 97 92 95 100 95 95 95 98 98 102 105 105 99 90 78 75 77 80 88 91 89
34 74 276 156 125 346 16 305 93 184 188 224 153 174 166 179 174 118 133 95 188 126 203 34 139 113 133 126 2 309 258 283 142 119 148 153 144 133 138 152 145 146 149 154 156 158 157 158 153 151 150 151 152 152 152 151 150 147 145 142 141 137 132 129 126 125 125 125 122 121 119 117 115 114 111 109 106 106 108 106 104 102 104 103 103 105 105 106 101 90 80 78 79 82 84 83 81
16 10 135 76 24 109 165 233 273 359 138 53 287 184 181 167 133 113 119 152 88 149 288 118 52 124 91 210 206 252 277 255 158 162 175 157 140 137 133 145 148 148 151 154 155 154 156 156 154 152 153 153 152 153 154 154 152 151 148 146 144 141 137 133 131 129 128 128 127 125 124 122 120 118 116 113 112 111 109 108 106 107 109 109 109 107 109 106 98 94 84 80 81 83 84 83 80
35 359 6 123 190 167 217 166 188 259 297 88 172 213 217 143 100 103 119 121 219 169 159 136 196 139 58 316 291 311 322 230 197 165 171 134 133 133 124 140 153 155 150 151 149 150 152 152 153 156 156 153 154 154 154 155 154 153 151 148 146 144 142 139 134 133 133 133 132 130 128 127 125 122 119 118 116 117 117 115 116 115 116 113 108 108 110 108 99 93 86 82 83 84 85 85 82
114 108 82 94 242 245 143 113 210 170 25 231 168 224 138 119 159 164 172 144 162 128 293 221 127 87 138 191 286 297 238 219 229 206 162 119 123 98 109 145 157 159 149 147 150 152 153 153 151 152 155 159 155 155 156 155 156 155 153 149 149 147 146 142 139 138 137 137 135 134 132 130 128 128 125 123 123 123 123 120 119 118 115 113 113 114 114 110 99 92 87 89 86 84 84 83 80
110 175 121 230 6 115 131 182 344 136 261 243 266 135 166 131 216 165 126 130 199 163 244 186 144 128 111 50 274 219 233 218 223 221 91 81 96 89 119 149 149 156 151 152 156 157 157 156 151 138 150 154 159 157 158 157 157 157 156 152 151 148 147 146 142 142 140 138 134 129 127 129 131 129 127 126 127 126 125 126 124 123 121 118 115 115 115 108 99 93 92 91 90 87 84 82 79
199 132 86 122 107 101 225 128 191 157 230 182 234 139 103 10 107 125 151 145 229 217 312 104 161 125 237 154 263 206 201 208 196 149 102 91 96 94 125 143 147 153 153 158 157 157 162 156 156 151 152 143 158 158 160 160 157 160 153 153 152 151 148 145 144 141 137 134 129 129 130 128 126 123 123 124 121 121 126 128 130 126 123 119 118 117 116 111 100 96 97 95 94 92 87 83 79
151 84 80 115 259 142 257 127 56 109 230 166 268 133 85 44 152 128 244 146 190 348 79 176 28 268 159 169 214 192 173 176 161 123 114 104 92 85 124 140 145 155 159 159 163 165 162 162 154 162 160 160 161 161 163 159 162 160 156 153 152 154 150 146 140 137 134 132 131 129 123 117 112 115 118 119 123 119 116 121 125 126 125 123 122 123 119 109 101 96 96 96 93 92 88 84 81
56 80 301 27 261 165 226 174 155 209 235 245 272 160 150 218 294 125 75 118 121 215 51 4 322 12 166 228 284 145 152 139 128 127 116 119 123 122 123 139 144 155 164 172 169 168 168 165 163 160 169 164 161 161 163 155 168 159 157 155 154 153 152 144 138 134 131 130 129 129 125 124 124 123 120 122 115 114 119 122 126 129 128 127 125 125 119 109 101 97 93 91 88 86 82 78 77
61 140 114 252 195 146 197 169 192 244 137 213 177 192 118 141 326 223 81 35 71 36 69 324 15 36 319 292 112 130 139 144 150 144 153 150 151 152 158 165 161 173 171 174 182 172 171 173 172 172 169 170 164 161 158 159 148 168 157 158 156 153 151 140 136 138 135 135 135 135 136 136 135 132 131 128 125 124 124 129 131 131 132 126 129 127 120 110 103 100 97 94 90 84 77 78 73
116 119 95 220 194 248 155 210 223 145 211 174 183 158 153 203 140 224 106 264 107 93 5 21 18 0 22 42 107 130 144 156 161 165 165 169 173 173 173 172 175 166 177 178 183 181 177 174 175 175 174 171 166 163 164 157 161 168 161 158 151 150 150 147 145 143 144 147 151 141 141 141 138 137 140 141 139 133 132 132 130 130 129 130 134 129 122 111 102 101 96 93 88 79 71 78 79
223 125 227 247 206 222 204 194 268 204 168 148 145 222 140 215 150 165 166 176 109 173 179 332 214 216 158 144 142 144 155 167 175 174 182 185 185 179 177 182 187 187 183 183 178 180 176 177 182 179 176 172 170 170 167 165 169 168 163 165 156 153 147 155 152 150 151 156 150 144 141 138 135 134 129 125 124 124 127 126 128 128 130 133 132 126 106 88 96 94 93 89 81 79 80 73 82
234 80 167 225 201 111 288 187 283 287 166 155 156 105 177 244 191 152 160 121 249 254 221 170 202 187 180 179 169 165 164 172 184 190 192 196 201 202 193 188 188 187 181 166 173 188 185 176 175 181 178 175 173 173 172 169 170 168 170 171 162 159 151 159 159 156 157 158 151 147 146 142 136 132 133 131 122 123 124 127 129 133 136 132 125 98 95 99 92 95 88 85 86 88 85 72 82
90 210 211 182 81 114 249 269 313 63 92 108 120 135 212 106 70 140 146 168 215 212 220 216 198 171 160 176 188 175 176 179 188 192 199 197 196 201 206 224 256 198 153 182 192 188 191 182 175 177 178 180 178 177 179 173 175 175 175 174 168 166 168 167 164 161 163 163 156 151 142 139 141 139 142 141 138 139 133 139 137 133 133 135 127 113 106 107 101 102 99 95 90 88 86 80 67
159 319 259 216 216 155 233 13 321 154 108 125 140 198 91 143 221 187 169 191 233 219 199 201 199 172 177 162 158 179 183 189 192 198 198 202 207 210 206 201 191 193 193 198 191 194 191 188 183 174 183 181 183 176 175 173 184 180 177 175 173 174 172 171 172 167 168 167 160 157 151 153 151 151 148 148 148 146 147 151 149 146 143 139 139 125 117 115 113 106 102 100 99 92 84 79 75
104 197 281 347 140 157 161 148 47 87 117 153 190 72 157 154 183 144 193 241 226 269 200 230 181 139 136 154 183 182 189 190 198 202 198 200 198 201 199 195 203 197 198 200 195 193 191 198 192 183 186 181 185 178 176 181 185 181 178 172 181 176 173 178 176 172 168 171 166 165 160 157 156 158 158 155 155 151 155 153 153 149 145 142 133 125 124 120 119 116 113 108 104 97 97 86 72
126 157 227 243 36 290 332 82 65 58 58 67 108 126 227 181 177 54 247 244 243 255 24 66 126 138 157 165 181 194 199 209 216 214 219 231 225 227 233 225 207 196 205 206 201 196 197 193 192 194 191 188 185 183 184 184 184 182 178 179 184 174 183 182 177 169 171 175 172 168 163 160 164 161 162 162 153 158 157 157 159 162 155 147 135 129 130 126 118 123 121 120 113 111 106 98 93
163 186 148 78 102 315 331 39 24 83 135 81 91 319 299 260 256 248 237 246 231 148 78 103 122 140 169 184 187 188 198 204 210 209 213 213 208 205 217 204 198 204 209 203 200 205 194 190 195 197 194 191 188 186 191 186 185 186 185 185 184 176 187 182 174 177 176 177 178 174 171 169 171 168 167 164 162 163 165 163 161 165 165 155 141 141 147 133 133 123 118 117 115 111 106 103 101
149 116 139 133 6 77 359 147 294 316 115 261 157 243 155 345 49 278 293 244 93 128 139 160 146 169 185 190 196 200 196 206 206 210 210 211 213 209 216 204 203 212 200 206 206 206 195 190 198 197 195 190 187 193 192 193 188 191 188 185 185 185 184 179 181 180 180 184 183 177 176 177 173 171 168 168 168 161 165 167 172 168 166 161 148 141 139 135 129 128 131 127 124 117 110 110 104
108 134 87 32 342 319 342 47 257 56 358 125 128 181 346 316 81 240 229 28 158 156 182 180 195 183 191 199 199 205 210 218 214 181 206 200 209 208 209 202 209 206 199 210 206 196 193 200 198 197 194 189 189 196 193 194 194 193 187 186 190 186 183 184 182 183 186 186 185 182 179 179 177 176 172 170 169 167 169 173 173 174 175 163 151 143 137 135 129 123 119 117 117 116 111 100 92
151 114 98 317 7 18 256 167 231 114 251 158 182 63 261 165 213 236 261 61 163 175 187 204 212 215 205 205 208 208 215 217 198 206 218 213 210 206 209 209 203 200 212 208 200 186 198 198 198 198 193 191 194 195 195 196 192 191 189 190 188 184 189 185 185 185 187 190 189 186 184 180 181 176 176 174 173 173 173 172 174 180 175 164 153 145 137 133 131 129 118 117 111 112 112 106 102
116 43 126 23 4 342 290 304 352 125 238 46 262 273 270 258 245 272 296 327 68 188 207 215 227 228 226 216 216 225 234 228 216 217 219 217 216 210 215 214 207 205 205 205 191 201 198 195 197 193 195 195 197 197 194 194 192 190 190 191 186 185 189 191 190 185 184 188 192 190 189 184 182 182 173 176 177 177 176 178 176 178 177 167 154 146 143 145 140 137 139 133 135 133 133 133 128
156 222 63 120 64 258 300 204 205 148 305 43 87 206 283 274 281 273 284 234 182 216 225 220 227 240 246 236 232 230 235 218 220 221 222 221 218 216 217 216 209 209 199 201 203 204 190 195 190 195 194 197 194 198 196 195 189 188 187 190 190 188 189 194 191 189 187 185 186 194 193 190 187 185 182 176 178 179 180 182 181 181 176 164 160 158 147 145 143 148 149 136 137 134 132 134 128
47 69 282 327 153 278 299 333 156 163 319 65 84 310 248 274 282 297 300 179 175 208 238 246 233 234 232 235 235 239 239 227 233 236 229 224 217 217 214 216 205 207 204 204 206 192 198 198 193 195 191 197 197 198 196 193 189 187 188 189 190 192 192 195 193 192 189 186 184 187 195 191 191 191 184 179 179 181 181 186 187 180 175 165 165 158 150 153 155 153 165 150 139 140 134 127 125
359 111 252 240 123 252 344 207 277 202 121 353 157 223 325 319 274 264 0 75 139 200 253 258 252 248 244 235 230 233 247 254 243 238 236 225 224 219 216 216 205 206 206 199 197 193 200 199 195 196 193 198 197 198 196 193 185 186 187 189 190 190 195 197 194 192 190 189 189 186 189 193 190 190 189 184 183 184 186 187 183 173 166 167 165 162 161 158 156 156 158 179 151 143 141 133 127
250 29 190 205 162 217 266 299 321 24 132 216 26 191 238 239 274 289 307 62 87 230 250 257 253 248 245 246 245 243 243 250 242 229 233 222 226 218 219 214 211 207 208 204 198 193 198 194 196 199 197 196 195 195 195 194 191 182 182 188 190 196 199 196 193 190 197 194 189 192 185 186 194 190 188 188 187 185 184 182 180 168 163 163 168 162 159 147 142 146 142 143 158 145 143 142 133
198 214 152 283 291 186 224 148 234 76 23 199 358 228 268 268 269 281 278 294 244 255 253 254 252 251 253 249 251 251 247 249 249 235 226 220 223 221 215 212 208 204 205 203 196 201 197 197 196 202 197 194 197 192 188 188 184 183 175 182 197 205 204 202 192 197 197 194 197 190 188 187 187 195 194 189 185 182 184 183 179 174 169 169 165 163 147 143 135 136 143 137 132 118 142 137 133
183 176 170 154 151 221 216 245 275 164 219 256 229 229 244 264 278 276 279 257 221 246 265 273 264 256 253 248 250 252 249 252 251 250 230 217 218 219 213 209 207 202 201 194 195 193 196 195 197 199 201 193 185 180 167 178 180 187 187 193 211 214 206 199 202 203 196 202 197 192 191 190 186 191 193 195 194 181 181 182 177 171 173 166 164 160 159 157 155 150 156 149 141 117 108 123 130
111 88 103 176 179 280 275 285 257 106 83 237 239 258 258 267 263 266 267 295 249 254 256 250 251 251 247 247 244 245 245 244 262 265 237 224 225 225 224 206 208 203 200 192 192 195 195 194 183 201 195 180 176 179 183 181 188 195 204 202 210 200 200 199 203 205 203 205 199 199 197 197 193 195 194 189 197 192 185 176 173 174 174 174 172 174 171 169 168 163 157 159 149 139 136 142 141
128 118 112 181 186 187 246 230 332 312 145 290 13 309 266 253 265 265 272 280 263 240 241 246 245 244 247 244 250 246 244 276 284 282 272 257 241 223 203 196 186 189 212 195 195 198 196 186 190 195 172 185 192 192 190 192 197 199 196 206 203 183 191 197 209 206 207 203 200 201 201 200 199 201 199 195 192 189 188 179 177 178 175 178 178 175 173 164 157 150 147 145 169 153 155 164 159
47 149 164 118 261 246 300 307 319 299 76 266 358 332 284 267 254 262 250 245 244 233 224 238 239 252 249 248 247 256 270 262 266 265 274 259 249 236 201 204 206 209 203 198 201 187 184 187 196 189 185 186 197 194 187 200 202 206 205 202 181 179 231 233 237 212 202 203 205 203 203 197 195 201 201 198 194 191 190 182 184 181 178 171 170 172 169 166 168 164 165 160 155 149 133 170 172
109 95 79 232 237 99 292 282 336 344 122 290 349 318 288 288 262 252 251 245 265 249 237 244 228 237 242 241 238 243 252 256 264 255 255 253 248 237 217 213 214 205 202 196 188 192 192 196 195 192 191 192 191 195 193 192 167 133 68 94 112 134 183 143 124 131 201 209 214 206 207 200 194 195 195 210 193 192 193 191 185 182 184 178 173 165 168 170 166 168 176 176 158 150 164 181 200
6 120 129 149 176 223 153 271 300 323 25 55 353 306 292 340 348 339 312 306 278 276 271 260 254 235 241 260 276 240 246 260 269 273 263 265 247 220 211 218 184 198 203 198 193 193 195 198 198 193 192 192 192 184 180 156 123 108 82 57 66 73 54 115 166 218 207 211 209 205 209 192 193 189 195 195 207 196 195 193 188 183 177 176 172 170 173 176 176 176 174 169 182 167 164 175 193
334 234 171 188 161 140 262 0 53 16 349 328 31 350 297 291 286 251 275 318 294 262 309 279 264 241 241 248 245 258 264 235 238 255 262 243 234 243 247 218 198 211 210 209 199 199 192 198 195 196 196 192 188 180 170 160 170 168 161 159 173 187 207 191 207 210 201 207 212 166 173 198 198 196 190 197 195 195 195 191 182 175 176 174 177 177 175 172 178 177 180 178 184 193 169 166 183
95 267 155 147 137 122 123 347 63 340 196 311 59 120 276 290 276 266 268 287 283 304 291 266 268 268 253 248 267 275 246 259 261 275 278 257 239 224 236 217 212 209 222 194 194 199 200 198 198 196 196 193 178 169 167 165 172 181 190 197 199 201 209 221 210 200 194 209 183 194 204 205 201 195 198 195 200 199 194 189 185 181 176 178 178 172 176 182 182 183 180 185 190 176 167 175 183
242 247 123 113 105 118 152 109 128 216 258 299 38 113 212 305 293 195 7 323 288 293 278 276 276 276 269 261 259 261 256 250 244 248 252 252 248 211 214 213 205 215 203 179 198 196 199 201 194 197 192 184 181 168 173 178 182 185 192 204 203 208 210 211 189 201 187 180 195 208 204 218 213 208 199 203 202 207 198 194 194 186 179 179 178 183 183 182 183 189 188 190 182 180 180 181 183
221 200 131 146 140 147 127 92 120 74 24 285 326 272 294 253 262 304 294 306 307 287 285 289 290 285 271 262 259 253 244 234 222 232 238 231 224 222 226 223 227 221 188 198 200 203 204 200 196 187 190 182 183 176 178 188 190 187 193 194 211 219 212 209 186 191 175 180 198 204 207 217 218 224 219 204 209 207 212 202 191 195 188 186 183 189 188 184 184 182 186 187 185 185 189 189 174
254 136 92 87 77 70 94 101 81 336 45 267 201 196 223 270 285 335 334 269 279 274 292 294 295 289 287 279 275 265 265 250 231 247 280 284 271 271 258 274 245 224 232 226 232 213 210 196 193 188 201 187 184 186 186 191 192 183 192 202 211 213 202 194 169 198 194 181 206 202 204 208 214 219 223 224 216 213 207 214 205 192 193 190 189 191 188 188 189 189 187 187 186 187 191 190 190
132 81 68 21 37 25 21 60 84 42 283 253 220 211 166 282 274 238 132 205 204 285 307 307 313 328 326 295 260 265 251 293 21 352 327 313 281 234 315 225 285 292 236 213 221 213 206 198 196 203 206 191 188 192 188 193 192 191 202 202 208 207 197 190 192 209 194 196 209 206 199 206 203 211 207 221 222 216 212 207 209 206 191 188 191 197 195 194 193 192 191 187 186 187 189 194 202
115 82 116 47 341 12 29 347 37 135 266 265 268 228 111 202 288 294 237 267 240 212 332 330 350 7 355 352 334 310 335 344 353 21 342 330 337 13 40 332 301 267 257 233 224 216 208 208 199 211 213 199 194 193 191 196 192 201 207 203 206 205 193 197 205 207 197 202 204 206 202 204 212 211 209 212 219 216 215 213 211 208 200 192 199 200 196 191 189 189 185 195 195 195 193 191 196
79 85 61 117 251 34 298 16 262 215 222 264 343 195 333 242 218 273 287 271 254 215 239 282 286 357 7 349 315 307 300 337 329 307 289 303 294 328 333 296 302 278 245 235 221 206 203 203 204 209 221 202 196 188 194 197 198 204 204 205 208 201 201 206 209 211 199 204 202 206 196 209 206 213 213 212 215 203 209 211 205 205 208 206 198 199 203 197 191 190 193 196 198 194 194 192 194
105 140 139 106 118 128 251 275 237 304 289 268 339 19 259 267 270 228 239 247 210 205 244 274 235 293 257 263 264 269 346 328 293 283 279 267 261 259 251 260 263 268 262 249 234 213 211 210 209 213 226 198 196 192 197 199 207 208 205 206 205 198 210 209 213 211 203 204 201 207 204 204 206 212 206 214 202 202 207 210 205 207 207 206 201 202 202 200 197 198 197 197 198 199 195 195 200
206 114 154 178 151 161 213 193 210 224 220 289 278 76 234 111 253 305 260 273 247 239 243 260 250 249 238 258 280 316 330 297 269 277 271 268 268 252 257 251 249 248 253 249 235 222 216 225 216 222 229 215 200 203 196 206 211 211 209 211 208 206 213 213 217 211 202 203 206 211 210 207 210 208 208 206 202 205 208 208 211 211 208 206 204 204 204 201 200 199 199 202 202 196 199 200 202
7 149 73 96 225 137 157 208 161 244 332 341 212 213 193 169 274 288 249 287 303 304 311 310 297 238 249 286 285 360 299 265 258 264 276 271 261 269 262 257 250 249 244 242 231 214 212 219 213 220 222 216 207 204 209 208 213 208 211 210 214 212 215 216 220 211 212 204 207 208 211 207 211 205 203 197 206 206 209 210 211 216 213 209 207 206 202 199 198 197 201 200 204 202 200 200 204
224 111 207 212 165 106 87 29 11 77 37 257 145 296 283 300 310 265 291 334 289 310 308 304 309 336 4 271 344 269 255 243 256 249 253 262 273 256 243 245 256 254 249 236 234 221 216 207 206 220 225 225 213 212 212 210 212 209 216 215 215 215 215 215 216 214 211 205 207 212 212 211 207 204 201 200 207 208 212 209 209 211 213 211 209 208 205 203 198 198 199 199 204 202 201 202 200
96 188 235 169 113 110 137 218 343 50 202 267 86 246 300 33 285 320 13 261 255 281 266 293 316 299 307 286 61 251 233 233 247 245 252 258 264 265 256 245 235 234 236 242 238 231 233 218 201 209 216 220 221 210 211 209 211 215 217 218 219 218 219 221 220 221 212 210 214 214 214 212 210 205 201 197 204 210 214 212 212 210 209 208 210 208 207 205 202 204 206 207 208 201 202 203 202
143 195 200 119 253 236 306 93 256 160 274 273 291 278 265 193 241 28 55 170 206 265 288 316 285 283 296 338 298 268 264 277 280 275 273 272 264 264 257 248 246 245 246 244 250 236 235 233 216 206 215 216 216 208 206 217 216 219 218 219 217 221 224 226 226 225 216 217 217 214 214 216 210 206 206 201 200 209 210 213 215 212 207 210 210 211 209 207 202 203 203 206 202 195 205 208 207
43 75 96 124 99 170 133 202 173 126 245 43 289 75 264 156 214 180 201 219 220 257 264 240 267 270 290 280 330 312 351 339 336 299 286 272 264 248 246 258 272 259 250 248 246 241 234 230 218 217 226 226 218 209 201 215 216 220 226 224 227 225 225 225 223 219 223 224 221 216 216 215 213 204 210 203 204 204 206 209 212 212 211 210 209 211 206 207 201 205 201 201 200 191 200 207 206
157 141 194 166 26 231 110 51 139 172 181 184 263 303 259 246 191 167 202 217 228 230 266 288 278 271 226 256 332 340 349 349 319 264 258 264 280 306 311 283 266 279 274 269 248 235 234 228 226 211 211 221 225 218 210 220 209 222 222 224 222 219 225 222 229 223 227 228 224 218 217 214 205 213 199 209 210 208 207 209 209 211 210 207 207 209 205 202 203 207 205 203 198 198 200 205 198
176 175 196 180 133 149 154 255 37 116 150 238 148 263 274 250 176 187 187 218 217 211 170 200 113 77 78 43 232 202 7 300 253 264 290 299 314 320 320 313 296 302 290 276 254 249 246 228 226 211 214 227 222 223 219 221 215 220 221 224 224 224 222 223 228 227 228 228 221 217 213 205 214 214 199 207 209 206 207 207 209 213 215 212 209 208 200 197 202 206 207 204 199 197 203 202 195